| time (UTC) | temp F | wind direction | speed MPH | gust MPH | rain 1hr in | rain 24hr in | rain mn in | humidity % | barometer mb |
| 20260508224414 | 61 | 143 | 0.0 | 0.0 | 0.00 | 0.00 | 0.00 | 87 | 494.6 |
| 20260508222931 | 61 | 143 | 0.0 | 0.0 | 0.00 | 0.00 | 0.00 | 86 | 463.4 |
| 20260508221929 | 61 | 143 | 0.0 | 0.0 | 0.00 | 0.00 | 0.00 | 85 | 468.0 |
| 20260508221429 | 62 | 143 | 0.0 | 2.0 | 0.00 | 0.00 | 0.00 | 83 | 467.2 |
| 20260508215930 | 62 | 143 | 0.0 | 3.0 | 0.00 | 0.00 | 0.00 | 82 | 467.2 |
| 20260508214930 | 62 | 196 | 0.0 | 0.0 | 0.00 | 0.00 | 0.00 | 81 | 484.5 |
| 20260508213924 | 63 | 196 | 0.0 | 0.0 | 0.00 | 0.00 | 0.00 | 80 | 473.1 |
| 20260508212922 | 63 | 196 | 0.0 | 0.0 | 0.00 | 0.00 | 0.00 | 80 | 476.9 |
| 20260508212836 | 63 | 196 | 0.0 | 0.0 | 0.00 | 0.00 | 0.00 | 79 | 472.7 |
| 20260508210917 | 63 | 196 | 0.0 | 0.0 | 0.00 | 0.00 | 0.00 | 79 | 498.6 |
| 20260508205914 | 63 | 196 | 0.0 | 0.0 | 0.00 | 0.00 | 0.00 | 80 | 473.3 |
| 20260508204914 | 63 | 197 | 0.0 | 0.0 | 0.00 | 0.00 | 0.00 | 79 | 498.6 |
| 20260508203907 | 64 | 229 | 0.0 | 0.0 | 0.00 | 0.00 | 0.00 | 78 | 472.4 |
| 20260508202907 | 64 | 229 | 0.0 | 0.0 | 0.00 | 0.00 | 0.00 | 78 | 468.1 |
| 20260508201905 | 64 | 229 | 0.0 | 0.0 | 0.00 | 0.00 | 0.00 | 77 | 472.5 |
| 20260508200905 | 64 | 229 | 0.0 | 0.0 | 0.00 | 0.00 | 0.00 | 77 | 473.2 |
| 20260508195903 | 64 | 229 | 0.0 | 0.0 | 0.00 | 0.00 | 0.00 | 77 | 466.4 |
| 20260508194902 | 64 | 229 | 0.0 | 0.0 | 0.00 | 0.00 | 0.00 | 76 | 498.7 |
| 20260508193902 | 65 | 229 | 0.0 | 0.0 | 0.00 | 0.00 | 0.00 | 76 | 652.2 |
| 20260508192902 | 65 | 229 | 0.0 | 0.0 | 0.00 | 0.00 | 0.00 | 75 | 468.0 |
| 20260508192536 | 65 | 229 | 0.0 | 0.0 | 0.00 | 0.00 | 0.00 | 73 | 467.6 |
| 20260508192444 | 66 | 229 | 0.0 | 0.0 | 0.00 | 0.00 | 0.00 | 72 | 469.2 |
| 20260508185902 | 67 | 229 | 0.0 | 0.0 | 0.00 | 0.00 | 0.00 | 71 | 474.1 |
| 20260508184904 | 67 | 229 | 0.0 | 2.0 | 0.00 | 0.00 | 0.00 | 67 | 468.0 |
| 20260508183902 | 68 | 277 | 0.0 | 0.0 | 0.00 | 0.00 | 0.00 | 61 | 468.0 |
| 20260508182901 | 68 | 277 | 0.0 | 0.0 | 0.00 | 0.00 | 0.00 | 60 | 472.5 |
| 20260508181902 | 68 | 277 | 0.0 | 0.0 | 0.00 | 0.00 | 0.00 | 60 | 468.0 |
| 20260508180854 | 68 | 277 | 0.0 | 0.0 | 0.00 | 0.00 | 0.00 | 59 | 504.1 |
| 20260508175855 | 69 | 277 | 0.0 | 0.0 | 0.00 | 0.00 | 0.00 | 60 | 468.0 |
| 20260508175337 | 69 | 277 | 0.0 | 0.0 | 0.00 | 0.00 | 0.00 | 60 | 484.5 |
| 20260508173850 | 69 | 277 | 0.0 | 0.0 | 0.00 | 0.00 | 0.00 | 60 | 468.1 |
| 20260508172850 | 70 | 277 | 0.0 | 3.0 | 0.00 | 0.00 | 0.00 | 61 | 468.1 |
| 20260508172325 | 70 | 277 | 0.0 | 3.0 | 0.00 | 0.00 | 0.00 | 60 | 478.4 |
| 20260508170846 | 70 | 277 | 1.0 | 3.0 | 0.00 | 0.00 | 0.00 | 59 | 471.4 |
| 20260508165844 | 71 | 277 | 0.0 | 3.0 | 0.00 | 0.00 | 0.00 | 57 | 822.1 |
| 20260508164847 | 71 | 281 | 1.0 | 4.0 | 0.00 | 0.00 | 0.00 | 57 | 498.6 |
| 20260508164328 | 71 | 274 | 1.0 | 3.0 | 0.00 | 0.00 | 0.00 | 56 | 468.2 |
| 20260508162840 | 71 | 272 | 3.0 | 6.0 | 0.00 | 0.00 | 0.00 | 56 | 504.2 |
| 20260508161838 | 71 | 296 | 2.0 | 5.0 | 0.00 | 0.00 | 0.00 | 55 | 483.7 |
| 20260508161757 | 72 | 286 | 2.0 | 4.0 | 0.00 | 0.02 | 0.00 | 56 | 468.0 |
| 20260508155833 | 72 | 289 | 1.0 | 4.0 | 0.00 | 0.02 | 0.00 | 54 | 463.9 |
| 20260508154831 | 72 | 287 | 3.0 | 7.0 | 0.00 | 0.02 | 0.00 | 55 | 482.3 |
| 20260508153830 | 72 | 235 | 3.0 | 7.0 | 0.00 | 0.02 | 0.00 | 55 | 465.6 |
| 20260508152831 | 72 | 269 | 3.0 | 8.0 | 0.00 | 0.02 | 0.00 | 55 | 468.7 |
| 20260508151832 | 72 | 279 | 2.0 | 7.0 | 0.00 | 0.02 | 0.00 | 57 | 473.3 |
| 20260508150832 | 72 | 254 | 3.0 | 7.0 | 0.00 | 0.02 | 0.00 | 55 | 489.3 |
| 20260508145831 | 72 | 272 | 1.0 | 7.0 | 0.00 | 0.02 | 0.00 | 54 | 469.2 |
| 20260508144831 | 72 | 265 | 3.0 | 8.0 | 0.00 | 0.02 | 0.00 | 54 | 489.6 |
| 20260508143831 | 72 | 285 | 2.0 | 7.0 | 0.00 | 0.02 | 0.00 | 55 | 483.9 |
| 20260508142832 | 72 | 307 | 3.0 | 7.0 | 0.00 | 0.02 | 0.00 | 54 | 466.4 |
| 20260508141830 | 72 | 258 | 3.0 | 9.0 | 0.00 | 0.02 | 0.00 | 54 | 469.9 |
| 20260508141332 | 72 | 274 | 2.0 | 7.0 | 0.00 | 0.02 | 0.00 | 53 | 467.9 |
| 20260508135828 | 72 | 281 | 3.0 | 10.0 | 0.00 | 0.02 | 0.00 | 52 | 468.1 |
| 20260508134830 | 72 | 301 | 4.0 | 10.0 | 0.00 | 0.02 | 0.00 | 52 | 472.5 |
| 20260508133824 | 73 | 250 | 2.0 | 7.0 | 0.00 | 0.02 | 0.00 | 55 | 466.4 |
| 20260508133308 | 73 | 290 | 1.0 | 8.0 | 0.00 | 0.02 | 0.00 | 52 | 477.4 |
| 20260508131823 | 73 | 236 | 1.0 | 4.0 | 0.00 | 0.02 | 0.00 | 49 | 468.0 |
| 20260508130826 | 72 | 311 | 2.0 | 7.0 | 0.00 | 0.02 | 0.00 | 51 | 880.9 |
| 20260508130746 | 72 | 221 | 2.0 | 7.0 | 0.00 | 0.02 | 0.00 | 52 | 467.9 |
| 20260508124819 | 72 | 290 | 1.0 | 7.0 | 0.00 | 0.02 | 0.00 | 52 | 482.2 |
| 20260508123821 | 73 | 266 | 2.0 | 7.0 | 0.00 | 0.02 | 0.00 | 51 | 473.1 |
| 20260508122816 | 72 | 165 | 3.0 | 9.0 | 0.00 | 0.02 | 0.00 | 51 | 467.6 |
| 20260508121815 | 72 | 237 | 1.0 | 5.0 | 0.00 | 0.02 | 0.00 | 52 | 468.0 |
| 20260508120813 | 73 | 164 | 1.0 | 6.0 | 0.00 | 0.02 | 0.00 | 49 | 475.6 |
| 20260508115815 | 72 | 225 | 0.0 | 3.0 | 0.00 | 0.02 | 0.00 | 53 | 484.5 |
| 20260508114805 | 71 | 229 | 1.0 | 6.0 | 0.00 | 0.02 | 0.00 | 54 | 466.8 |
| 20260508113806 | 71 | 177 | 2.0 | 8.0 | 0.00 | 0.02 | 0.00 | 55 | 473.3 |
| 20260508112806 | 71 | 180 | 3.0 | 7.0 | 0.00 | 0.02 | 0.00 | 55 | 466.6 |
| 20260508111806 | 71 | 189 | 1.0 | 6.0 | 0.00 | 0.02 | 0.00 | 58 | 468.3 |
| 20260508110807 | 70 | 231 | 1.0 | 6.0 | 0.00 | 0.02 | 0.00 | 58 | 473.4 |
| 20260508105803 | 69 | 261 | 3.0 | 8.0 | 0.00 | 0.02 | 0.00 | 55 | 466.6 |
| 20260508104804 | 70 | 200 | 3.0 | 7.0 | 0.00 | 0.02 | 0.00 | 56 | 456.2 |
| 20260508103803 | 70 | 246 | 2.0 | 7.0 | 0.00 | 0.02 | 0.00 | 55 | 408.1 |
| 20260508102804 | 70 | 223 | 1.0 | 5.0 | 0.00 | 0.02 | 0.00 | 60 | 484.5 |
| 20260508102241 | 68 | 292 | 1.0 | 7.0 | 0.00 | 0.02 | 0.00 | 60 | 461.1 |
| 20260508100801 | 68 | 292 | 2.0 | 8.0 | 0.00 | 0.02 | 0.00 | 60 | 468.2 |
| 20260508095756 | 68 | 0 | 2.0 | 6.0 | 0.00 | 0.02 | 0.00 | 63 | 495.3 |
| 20260508094757 | 67 | 251 | 3.0 | 9.0 | 0.00 | 0.02 | 0.00 | 64 | 476.2 |
| 20260508093758 | 66 | 0 | 3.0 | 9.0 | 0.00 | 0.02 | 0.00 | 67 | 468.1 |
| 20260508092752 | 67 | 308 | 1.0 | 4.0 | 0.00 | 0.02 | 0.00 | 67 | 468.0 |
| 20260508091752 | 66 | 311 | 1.0 | 4.0 | 0.00 | 0.02 | 0.00 | 67 | 491.8 |
| 20260508090752 | 66 | 319 | 1.0 | 5.0 | 0.00 | 0.02 | 0.00 | 69 | 467.2 |
| 20260508085744 | 66 | 321 | 1.0 | 5.0 | 0.00 | 0.02 | 0.00 | 71 | 478.8 |
| 20260508085715 | 65 | 33 | 2.0 | 5.0 | 0.00 | 0.02 | 0.00 | 70 | 478.4 |
| 20260508083744 | 65 | 333 | 0.0 | 4.0 | 0.00 | 0.02 | 0.00 | 70 | 468.0 |
| 20260508082746 | 64 | 312 | 1.0 | 5.0 | 0.00 | 0.02 | 0.00 | 71 | 460.8 |
| 20260508081746 | 64 | 32 | 0.0 | 3.0 | 0.00 | 0.02 | 0.00 | 73 | 468.3 |
| 20260508080738 | 64 | 34 | 0.0 | 0.0 | 0.00 | 0.02 | 0.00 | 71 | 468.3 |
| 20260508075735 | 64 | 34 | 0.0 | 5.0 | 0.00 | 0.02 | 0.00 | 70 | 483.7 |
| 20260508074736 | 63 | 47 | 0.0 | 4.0 | 0.00 | 0.02 | 0.00 | 71 | 544.0 |
| 20260508073733 | 63 | 53 | 1.0 | 4.0 | 0.00 | 0.02 | 0.00 | 72 | 478.8 |
| 20260508072731 | 62 | 49 | 1.0 | 5.0 | 0.00 | 0.02 | 0.00 | 72 | 473.0 |
| 20260508071730 | 63 | 0 | 1.0 | 4.0 | 0.00 | 0.02 | 0.00 | 73 | 494.6 |
| 20260508071223 | 62 | 64 | 1.0 | 4.0 | 0.00 | 0.02 | 0.00 | 74 | 467.5 |
| 20260508065728 | 62 | 47 | 0.0 | 3.0 | 0.00 | 0.02 | 0.00 | 73 | 466.7 |
| 20260508064722 | 61 | 47 | 1.0 | 3.0 | 0.00 | 0.02 | 0.00 | 75 | 477.8 |
| 20260508064158 | 61 | 47 | 0.0 | 3.0 | 0.00 | 0.02 | 0.00 | 76 | 479.3 |
| 20260508062720 | 61 | 46 | 0.0 | 1.0 | 0.00 | 0.02 | 0.00 | 75 | 473.7 |
| 20260508062155 | 60 | 46 | 0.0 | 3.0 | 0.00 | 0.02 | 0.00 | 76 | 468.6 |
| 20260508061213 | 58 | 46 | 1.0 | 4.0 | 0.00 | 0.02 | 0.00 | 77 | 464.7 |
| 20260508055713 | 58 | 13 | 0.0 | 0.0 | 0.00 | 0.02 | 0.00 | 78 | 474.0 |
| 20260508054716 | 57 | 13 | 0.0 | 2.0 | 0.00 | 0.02 | 0.00 | 80 | 468.1 |
| 20260508053712 | 56 | 13 | 1.0 | 4.0 | 0.00 | 0.02 | 0.00 | 81 | 468.3 |
| 20260508052710 | 56 | 5 | 0.0 | 4.0 | 0.00 | 0.02 | 0.00 | 81 | 467.2 |
| 20260508051712 | 55 | 5 | 0.0 | 3.0 | 0.00 | 0.02 | 0.00 | 83 | 536.4 |
| 20260508050706 | 54 | 5 | 0.0 | 0.0 | 0.00 | 0.02 | 0.00 | 84 | 489.1 |
| 20260508045706 | 54 | 5 | 0.0 | 3.0 | 0.00 | 0.02 | 0.00 | 84 | 460.1 |
| 20260508044714 | 54 | 5 | 1.0 | 4.0 | 0.00 | 0.02 | 0.00 | 84 | 472.5 |
| 20260508043706 | 54 | 355 | 1.0 | 6.0 | 0.00 | 0.02 | 0.00 | 85 | 468.3 |
| 20260508042703 | 53 | 10 | 4.0 | 9.0 | 0.00 | 0.02 | 0.00 | 85 | 495.0 |
| 20260508041710 | 54 | 21 | 3.0 | 9.0 | 0.00 | 0.02 | 0.00 | 86 | 467.9 |
| 20260508040707 | 53 | 18 | 2.0 | 7.0 | 0.00 | 0.02 | 0.00 | 87 | 484.0 |
| 20260508040633 | 53 | 13 | 2.0 | 7.0 | 0.00 | 0.02 | 0.00 | 87 | 465.6 |
| 20260508034703 | 53 | 11 | 3.0 | 7.0 | 0.00 | 0.02 | 0.00 | 87 | 468.0 |
| 20260508033703 | 53 | 11 | 2.0 | 7.0 | 0.00 | 0.02 | 0.00 | 86 | 473.2 |
| 20260508032659 | 53 | 9 | 2.0 | 7.0 | 0.00 | 0.02 | 0.00 | 86 | 468.0 |
| 20260508031659 | 53 | 22 | 3.0 | 5.0 | 0.00 | 0.02 | 0.00 | 86 | 456.3 |
| 20260508030654 | 53 | 28 | 1.0 | 4.0 | 0.00 | 0.02 | 0.00 | 85 | 473.2 |
| 20260508025652 | 53 | 28 | 2.0 | 6.0 | 0.00 | 0.02 | 0.00 | 85 | 468.0 |
| 20260508024652 | 54 | 28 | 1.0 | 5.0 | 0.00 | 0.02 | 0.00 | 85 | 461.9 |
| 20260508024613 | 54 | 28 | 1.0 | 4.0 | 0.00 | 0.02 | 0.00 | 85 | 468.0 |
| 20260508022654 | 54 | 28 | 1.0 | 4.0 | 0.00 | 0.02 | 0.00 | 84 | 441.4 |
| 20260508021646 | 54 | 28 | 0.0 | 8.0 | 0.00 | 0.02 | 0.00 | 84 | 443.9 |
| 20260508021116 | 54 | 28 | 3.0 | 8.0 | 0.00 | 0.02 | 0.00 | 83 | 445.3 |
| 20260508020120 | 54 | 28 | 1.0 | 8.0 | 0.00 | 0.02 | 0.00 | 83 | 468.0 |
| 20260508014637 | 54 | 23 | 0.0 | 3.0 | 0.00 | 0.02 | 0.00 | 84 | 467.9 |
| 20260508014112 | 54 | 23 | 0.0 | 3.0 | 0.00 | 0.02 | 0.00 | 84 | 467.9 |
| 20260508012630 | 55 | 23 | 1.0 | 4.0 | 0.00 | 0.02 | 0.00 | 83 | 471.4 |
| 20260508011630 | 55 | 23 | 1.0 | 5.0 | 0.00 | 0.02 | 0.00 | 82 | 468.0 |
| 20260508010626 | 55 | 23 | 0.0 | 3.0 | 0.00 | 0.02 | 0.00 | 83 | 468.0 |
| 20260508005626 | 55 | 23 | 1.0 | 4.0 | 0.00 | 0.02 | 0.00 | 83 | 468.0 |
| 20260508004619 | 55 | 23 | 2.0 | 6.0 | 0.00 | 0.02 | 0.00 | 82 | 468.2 |
| 20260508004059 | 55 | 26 | 1.0 | 8.0 | 0.00 | 0.02 | 0.00 | 83 | 468.2 |
| 20260508002616 | 55 | 27 | 1.0 | 5.0 | 0.00 | 0.02 | 0.00 | 84 | 467.3 |
| 20260508001608 | 55 | 27 | 3.0 | 8.0 | 0.00 | 0.02 | 0.00 | 83 | 469.0 |
| 20260508000604 | 55 | 27 | 1.0 | 5.0 | 0.00 | 0.02 | 0.00 | 84 | 438.5 |
| 20260507235603 | 55 | 27 | 1.0 | 4.0 | 0.00 | 0.02 | 0.00 | 84 | 467.2 |
| 20260507234606 | 55 | 27 | 0.0 | 1.0 | 0.00 | 0.02 | 0.00 | 84 | 489.4 |
| 20260507233602 | 55 | 27 | 1.0 | 4.0 | 0.00 | 0.02 | 0.00 | 84 | 468.1 |
| 20260507232604 | 54 | 27 | 0.0 | 2.0 | 0.00 | 0.02 | 0.00 | 85 | 468.0 |
| 20260507231602 | 54 | 27 | 1.0 | 4.0 | 0.00 | 0.02 | 0.00 | 85 | 468.0 |
| 20260507231049 | 54 | 27 | 0.0 | 4.0 | 0.00 | 0.02 | 0.00 | 86 | 478.4 |
| 20260507225602 | 55 | 27 | 0.0 | 3.0 | 0.00 | 0.02 | 0.00 | 86 | 468.6 |
| 20260507225054 | 55 | 27 | 0.0 | 0.0 | 0.00 | 0.02 | 0.00 | 86 | 468.0 |